This is the latest recevied weather packets stored in our database for station/object NU3S-7. If no packets are shown the sender has not sent any weather packets the latest 1 day(s).
| Time | Temp. | Humidity | Pressure | Rain* | Wind** | Luminosity | Snow |
|---|---|---|---|---|---|---|---|
| 1778035017 | 19.44° C | 69% | 1007.2 hPa | 0.51 mm | 0.45 m/s, 211° | - | - |
| 1778034417 | 19.44° C | 69% | 1007.2 hPa | 0.51 mm | 0 m/s | - | - |
| 1778033831 | 19.44° C | 68% | 1007.2 hPa | 0.51 mm | 0.45 m/s, 224° | - | - |
| 1778033216 | 20° C | 68% | 1007.1 hPa | 0.51 mm | 0.89 m/s, 149° | - | - |
| 1778032616 | 20° C | 67% | 1007.1 hPa | 0.51 mm | 0 m/s | - | - |
| 1778031471 | 20° C | 67% | 1007.1 hPa | 0.51 mm | 0.89 m/s, 207° | - | - |
| 1778030819 | 19.44° C | 67% | 1007 hPa | 0.51 mm | 0 m/s | - | - |
| 1778030214 | 20° C | 67% | 1007 hPa | 0.51 mm | 0 m/s | - | - |
| 1778029615 | 20° C | 67% | 1007.1 hPa | 0.51 mm | 0 m/s | - | - |
| 1778028457 | 20.56° C | 65% | 1007.2 hPa | 0.51 mm | 0 m/s | - | - |
| 1778028411 | 20.56° C | 65% | 1007.2 hPa | 0.51 mm | 0 m/s | - | - |
| 1778027881 | 20.56° C | 64% | 1007.3 hPa | 0.51 mm | 0 m/s | - | - |
| 1778027811 | 20.56° C | 64% | 1007.3 hPa | 0.51 mm | 0 m/s | - | - |
| 1778027246 | 20.56° C | 64% | 1007.3 hPa | 0.51 mm | 0.45 m/s, 195° | - | - |
| 1778026036 | 21.11° C | 62% | 1007.3 hPa | 0.51 mm | 1.79 m/s, 271° | - | - |
| 1778024265 | 21.11° C | 62% | 1007.1 hPa | 0.51 mm | 1.79 m/s, 204° | - | - |
| 1778024206 | 21.11° C | 62% | 1007.1 hPa | 0.51 mm | 1.79 m/s, 204° | - | - |
| 1778023034 | 21.67° C | 63% | 1007.2 hPa | 0.51 mm | 1.79 m/s, 256° | - | - |
| 1778022441 | 21.67° C | 65% | 1007.1 hPa | 0.51 mm | 1.79 m/s, 271° | - | - |
| 1778021805 | 21.67° C | 64% | 1007.2 hPa | 0.51 mm | 1.34 m/s, 278° | - | - |
| 1778021320 | 21.67° C | 64% | 1007.2 hPa | 0.51 mm | 1.79 m/s, 221° | - | - |
| 1778020635 | 21.67° C | 66% | 1007.1 hPa | 0.51 mm | 1.79 m/s, 210° | - | - |
| 1778020604 | 21.67° C | 66% | 1007.1 hPa | 0.51 mm | 1.79 m/s, 210° | - | - |
| 1778020004 | 21.67° C | 67% | 1007.3 hPa | 0.51 mm | 2.24 m/s, 266° | - | - |
| 1778019402 | 22.22° C | 67% | 1007.4 hPa | 0.51 mm | 1.79 m/s, 271° | - | - |
* Rain since midnight (hover to see other rain measurements)
** Current wind speed in m/s (hover to see current wind gust speed)